This is the latest recevied weather packets stored in our database for station/object HS3MXC-2. If no packets are shown the sender has not sent any weather packets the latest 1 day(s).
| Time | Temp. | Humidity | Pressure | Rain* | Wind** | Luminosity | Snow |
|---|---|---|---|---|---|---|---|
| 1778048152 | 27.78° C | 39% | 994.6 hPa | - | - | - | - |
| 1778047844 | 27.78° C | 39% | 994.8 hPa | - | - | - | - |
| 1778047531 | 27.78° C | 39% | 994.9 hPa | - | - | - | - |
| 1778047224 | 27.78° C | 39% | 995.1 hPa | - | - | - | - |
| 1778046916 | 27.78° C | 39% | 995.1 hPa | - | - | - | - |
| 1778045993 | 27.22° C | 39% | 995.5 hPa | - | - | - | - |
| 1778045379 | 27.22° C | 39% | 995.8 hPa | - | - | - | - |
| 1778044762 | 27.22° C | 40% | 996 hPa | - | - | - | - |
| 1778044454 | 27.22° C | 40% | 996.1 hPa | - | - | - | - |
| 1778044147 | 27.22° C | 40% | 996.3 hPa | - | - | - | - |
| 1778043533 | 27.22° C | 41% | 996.5 hPa | - | - | - | - |
| 1778043226 | 27.22° C | 41% | 996.6 hPa | - | - | - | - |
| 1778042918 | 27.22° C | 41% | 996.7 hPa | - | - | - | - |
| 1778042304 | 26.67° C | 42% | 996.8 hPa | - | - | - | - |
| 1778041689 | 26.67° C | 44% | 996.9 hPa | - | - | - | - |
| 1778041376 | 26.67° C | 45% | 997 hPa | - | - | - | - |
| 1778041069 | 26.67° C | 46% | 997.1 hPa | - | - | - | - |
| 1778040452 | 26.11° C | 45% | 997.1 hPa | - | - | - | - |
| 1778040145 | 25.56° C | 47% | 997.2 hPa | - | - | - | - |
| 1778039530 | 25.56° C | 50% | 997.2 hPa | - | - | - | - |
| 1778037994 | 23.89° C | 50% | 997.6 hPa | - | - | - | - |
| 1778037687 | 23.89° C | 51% | 997.7 hPa | - | - | - | - |
| 1778037380 | 23.89° C | 51% | 997.7 hPa | - | - | - | - |
| 1778036453 | 24.44° C | 50% | 997.9 hPa | - | - | - | - |
| 1778036147 | 23.89° C | 47% | 997.9 hPa | - | - | - | - |
* Rain since midnight (hover to see other rain measurements)
** Current wind speed in m/s (hover to see current wind gust speed)